Location: Berz�-le-Ch�tel
(46.3851°N, 4.6906°E)
Time: 12:37:29
(UTC+00:00)

Daily predictions for brighter satellites

Satellite Brightness Start Highest point End
(mag) Time Altitude Azimuth Time Altitude Azimuth Time Altitude Azimuth
Cosmos-2242 4.4 17:06:20 10° NNE 17:09:23 19° ENE 17:12:27 10° ESE
NOAA 11 4.2 17:04:10 10° SSE 17:09:39 78° ENE 17:15:10 10° NNW
AQUARIUS 4.2 17:06:00 10° SSE 17:10:29 88° ENE 17:15:02 10° NNW
NOSS 3-1 (C) 4.1 17:04:15 10° NW 17:11:41 75° NE 17:20:22 10° SE
COSMO-SKYMED 1 3.4 17:10:11 10° NNE 17:14:03 30° E 17:17:53 10° SSE
BREEZE-M DEB (TANK) 2.4 17:12:34 10° WNW 17:14:51 38° N 17:17:04 10° ENE
Cosmos 1937 Rocket 4.1 17:10:40 10° S 17:15:33 39° ESE 17:20:28 10° NE
Aureole 3 2.5 17:14:18 10° N 17:17:22 69° E 17:20:20 10° SSE
Okean 1-7 Rocket 3.8 17:12:59 10° SSW 17:17:33 79° W 17:22:08 10° N
USA 290 3.4 17:18:46 10° N 17:21:22 22° ENE 17:23:55 10° ESE
NOSS 2-1 (C) 2.8 17:20:01 10° SW 17:23:22 86° SE 17:26:50 10° NE
Cosmos 1833 Rocket 3.0 17:19:51 10° NNW 17:25:12 43° NE 17:30:31 10° SE
H-2A R/B 2.8 17:23:53 10° ESE 17:28:12 29° ENE 17:32:38 10° N
Meteor 1-21 Rocket 4.2 17:23:36 10° S 17:29:08 81° E 17:34:45 10° NNE
NOSS 2-1 (D) 2.9 17:25:59 10° SW 17:29:18 81° NW 17:32:47 10° NE
Cosmos 1939 Rocket 2.8 17:26:13 10° SSE 17:30:17 71° ENE 17:34:18 10° N
Helios 1A Rocket 4.2 17:27:44 10° ESE 17:30:47 20° ENE 17:33:51 10° NNE
H-2A R/B 2.3 17:26:59 10° N 17:31:22 75° WNW 17:35:38 10° SSW
Cosmos 2344 4.4 17:22:26 10° NW 17:31:29 65° NE 17:44:03 10° SE
USA 229 DEB 3.9 17:25:52 10° NW 17:33:10 75° NE 17:40:52 10° SE
USA 229 3.9 17:25:59 10° NW 17:33:16 74° NE 17:40:59 10° SE
Cosmos 44 3.7 17:28:31 10° SW 17:33:19 66° NW 17:38:29 10° NNE
Cosmos 1602 Rocket 3.6 17:29:03 10° S 17:33:19 60° E 17:37:40 10° NNE
CZ-3B R/B 2.0 17:31:53 10° NW 17:34:24 59° NE 17:41:19 10° ESE
Cosmos 2026 Rocket 4.2 17:28:43 10° SSE 17:34:36 49° E 17:40:35 10° NNE
SeaSat 1 4.1 17:30:37 10° N 17:34:57 32° NW 17:39:17 10° WSW
Feng Yun 1-1 Rocket 4.2 17:30:12 10° SSE 17:35:37 67° ENE 17:41:14 10° N
CSL-04 DEB 4.4 17:31:55 10° NNE 17:36:02 65° ESE 17:40:00 10° S
SJ 16-02 2.7 17:32:20 10° SW 17:36:28 39° WNW 17:40:37 10° N
Cosmos 2112 Rocket 4.1 17:32:45 10° NNW 17:38:00 80° WSW 17:43:11 10° SSE
YAOGAN 1 3.2 17:35:51 10° SE 17:39:41 32° ENE 17:43:33 10° N
Cosmos 990 Rocket 4.1 17:34:39 10° SSW 17:39:52 84° WNW 17:45:05 10° NNE
Cosmos 1844 Rocket 3.8 17:36:22 10° SW 17:41:44 42° NW 17:47:06 10° NNE
H-2A R/B 4.3 17:37:55 10° SSW 17:41:45 35° W 17:45:45 10° NNW
Cosmos 1689 Rocket 3.5 17:41:34 18° E 17:41:53 18° E 17:43:55 10° SE
Cosmos 1553 Rocket 4.4 17:36:16 10° N 17:42:14 39° ENE 17:48:05 10° SE
Aureole 3 Rocket 2.8 17:39:55 10° N 17:43:06 47° E 17:47:01 10° SSE
COSMOS 2406 3.2 17:38:54 10° NNW 17:44:41 66° ENE 17:50:24 10° SE
Cosmos 2082 Rocket 2.8 17:39:42 10° NNW 17:44:58 35° NE 17:50:09 10° ESE
Cosmos 1703 3.3 17:43:29 10° S 17:47:21 81° W 17:51:15 10° N
Cosmos 1825 Rocket 4.1 17:44:27 10° SSE 17:48:26 35° E 17:52:28 10° NNE
NOSS 3-1 (A) 4.1 17:41:22 10° NW 17:48:51 79° NE 17:57:34 10° SE
IRS-1C Rocket 4.1 17:43:57 10° SSE 17:49:08 64° ENE 17:54:22 10° N
X-37B 1.1 17:46:06 10° W 17:49:15 55° SSW 17:51:36 16° ESE
ISS -2.6 17:49:01 10° WNW 17:52:07 32° N 17:53:50 20° NE
Cosmos 1812 Rocket 3.5 17:47:57 10° N 17:52:21 90° WNW 17:56:42 10° S
Okean O Rocket 3.2 17:50:58 10° SSW 17:55:07 39° W 17:59:15 10° NNW
ATLAS 5 CENTAUR R/B 4.1 17:55:41 10° NNW 17:57:31 12° N 17:59:27 10° NNE
CZ-4 R/B 1.4 17:55:20 10° SSE 17:59:16 56° ENE 18:03:10 10° N
Iridium 4 Rocket 3.4 17:55:18 10° N 18:00:42 72° E 18:05:35 10° S
ERS-2 2.2 17:58:42 10° NNE 18:02:15 50° E 18:05:48 10° S
SKYMED 2 3.6 17:57:54 10° NNE 18:02:17 86° WNW 18:06:37 10° SSW
CSL-04 Rocket 4.1 17:58:43 10° SE 18:03:45 40° ENE 18:08:52 10° N
Okean-O 2.6 18:02:24 10° SSE 18:06:46 61° ENE 18:11:09 10° N
CZ-4C R/B 4.3 18:03:56 10° NW 18:08:02 18° N 18:11:46 12° NE
S3M 4.2 18:02:59 10° N 18:08:46 42° ENE 18:14:32 10° SE
Cosmos 1428 Rocket 4.5 18:03:53 10° S 18:10:11 87° E 18:16:33 10° N
USA 234 4.2 18:05:52 17° NE 18:10:11 35° N 18:15:59 10° WNW
Cosmos 1340 3.5 18:07:16 10° SSW 18:10:56 51° WNW 18:14:37 10° N
Cosmos 1346 Rocket 2.7 18:07:32 10° S 18:11:24 60° E 18:15:12 11° NNE
Cosmos 2278 Rocket 2.1 18:06:08 10° SSW 18:11:46 73° ESE 18:17:11 11° NNE
Cosmos 1655 Rocket 4.4 18:06:12 10° SSE 18:11:48 37° E 18:17:26 10° NNE
Cosmos 1953 Rocket 3.8 18:10:46 10° SSE 18:14:53 43° E 18:17:58 16° NNE
CZ-2C R/B 3.5 18:09:50 10° S 18:15:18 72° WSW 18:21:04 10° NNW
SWARM A 4.3 18:14:27 10° SSE 18:17:40 52° E 18:18:52 32° NNE
Cosmos 2292 Rocket 3.8 18:15:06 10° SSE 18:19:39 41° E 18:20:41 34° ENE
SAR-Lupe-4 3.4 18:17:50 20° NNE 18:20:13 68° ESE 18:23:46 10° S
Cosmos 44 Rocket 3.8 18:17:24 10° S 18:21:58 40° ESE 18:23:19 33° E
Cosmos 405 4.0 18:19:08 10° NNW 18:22:33 47° W 18:25:55 10° S
ARGOS 3.0 18:23:32 10° SSE 18:28:50 67° ENE 18:34:12 10° N
DMSP B5D1-3 4.4 18:23:55 10° NNE 18:28:59 63° ESE 18:34:03 10° S
Cosmos 1869 3.6 18:27:02 10° N 18:30:11 43° NE 18:30:11 43° NE
Meteor 2-19 Rocket 4.5 18:24:54 10° S 18:31:04 84° W 18:37:16 10° N
PSLV R/B 4.0 18:29:20 10° NNE 18:33:34 80° WNW 18:37:46 10° SSW
Cosmos 372 Rocket 4.0 18:30:13 10° SSW 18:35:26 85° WNW 18:39:58 14° NNE
SAR-Lupe-1 4.1 18:34:04 22° N 18:36:16 76° WNW 18:39:51 10° SSW
CZ-4B R/B 3.7 18:34:20 10° NNW 18:37:03 24° WNW 18:39:41 10° WSW
Cosmos 468 4.4 18:32:50 10° NNW 18:38:05 65° ENE 18:41:13 24° SE
CZ-2C R/B 2.9 18:33:45 13° NNE 18:38:39 49° E 18:44:05 10° S
Cosmos 494 Rocket 4.1 18:37:00 10° NNW 18:42:01 49° ENE 18:42:29 47° E
Cosmos 2150 Rocket 3.9 18:39:35 10° S 18:44:39 60° ESE 18:45:58 45° NE
MOS 1 Rocket 4.5 18:41:00 10° N 18:44:59 38° WNW 18:49:00 10° SW
Cosmos 1048 Rocket 3.8 18:41:55 10° NNW 18:47:05 76° ENE 18:49:36 31° SSE
Cosmos-2242 4.1 18:43:05 10° NNW 18:47:11 44° W 18:51:17 10° SSW
Cosmos 2297 4.3 18:47:09 10° S 18:51:23 38° SE 18:51:23 38° SE
SL-08 RB Rocket 3.5 18:59:18 48° SSE 19:00:33 88° WSW 19:05:04 10° NNW
CSL-04 Debris 4.4 18:57:23 10° S 19:02:43 67° WSW 19:08:07 10° NNW
Helios 1A Rocket 4.1 19:01:43 10° S 19:05:39 42° W 19:09:38 10° NNW
H-2A R/B 3.2 19:02:40 10° SSW 19:07:26 41° W 19:12:22 10° NNW
Cosmos 1833 Rocket 4.3 19:04:02 10° NW 19:09:00 33° WSW 19:13:57 10° SSW
Cosmos 1125 Rocket 3.5 19:04:07 10° SSW 19:08:40 64° SSE 19:08:40 64° SSE
Cosmos 1809 Rocket 4.3 19:03:36 10° S 19:09:44 90° NE 19:15:56 10° N
Cosmos 2298 Rocket 4.1 19:06:40 10° SSW 19:11:59 76° WNW 19:13:35 46° N
Cosmos 2266 Rocket 3.8 19:07:39 10° S 19:13:54 88° E 19:20:04 10° N
NOSS 2-2 (C) 4.3 19:14:26 10° NW 19:19:52 74° NE 19:20:07 73° ENE
X-37B 3.7 19:23:07 10° WSW 19:23:54 14° WSW 19:23:54 14° WSW
Cosmos 1943 Rocket 4.2 19:22:28 10° S 19:23:18 14° S 19:23:18 14° S
Cosmos 2082 Rocket 3.3 19:23:46 10° NW 19:29:07 42° WSW 19:33:42 14° S
ISS -0.8 19:26:04 10° WNW 19:26:49 15° NW 19:26:49 15° NW
ATLAS 5 CENTAUR R/B 4.4 19:41:42 10° NNW 19:42:29 12° N 19:42:29 12° N
Cosmos 2315 Rocket 4.1 19:40:19 10° NNW 19:46:32 71° W 19:46:33 71° W
ATLAS 2AS CENTAUR R/B 4.2 19:42:45 10° NW 19:48:21 26° NNE 19:48:21 26° NNE
USA 234 3.9 19:53:13 44° N 19:53:13 44° N 19:58:32 10° NW
Cosmos 2278 Rocket 4.2 19:51:58 10° W 19:56:27 23° NW 19:59:05 17° N
CZ-4C R/B 4.1 19:53:01 10° NNW 19:56:58 26° N 19:56:58 26° N
CZ-2C R/B 4.5 20:15:10 15° NNW 20:18:41 28° WNW 20:23:22 10° WSW
